DELTA 1 DEB, 7024

Orbit data source: Space-Track

DELTA 1 DEB, 7024 is space debris in SSO originally from a launch on Tue, 06 Nov 1973 UTC launched from the Air Force Western Test Range (AFWTR). Debris objects in space refer to the collection of defunct objects orbiting the Earth. Examples of debris include non-operational satellites, rocket bodies, and fragments generated from explosions, collisions, or faulty payload assembly.

Loading next visibility...
Identifier
7024, 1973-086Q
Orbit
SSO
Country
Flag of USUS
Related business
Manufacturer
Unknown
Mission
Spacecraft
Bus & Motor
Unknown
Mass
Unknown
Launch date (UTC)
1973-11-06 (52 years ago)
Launch vehicle
Unknown
Launch site
Air Force Western Test Range (AFWTR)
Object type
Payload
Rocket body
Debris
Shape & HBR
Unknown shape, 0.1 m
Radar Cross Section
Medium (>0.1 m² and <1 m²)

Expand to show TLE details & history
Last TLE update: 12 hours ago

TLE from 12 hours ago
0 DELTA 1 DEB
1  7024U 73086Q   25298.38414417  .00002162  00000-0  10053-1 0  9996
2  7024 101.8585 357.7122 0060698 354.2731  66.2944 12.76959112401485
Epoch: 2025-10-25T09:13Z
TLE epoch observation values (Epoch: 2025-10-25T09:13:10.056Z)
Latitude
59.14812°
Longitude
164.93194°
Altitude
1,344.923 km
Speed
7.2 km/s
True Right ascension
22h 28m 57s
True Declination
59° 00' 29"
Sunlit
Object was in daylight at epoch
Visualization orbit readout
Latitude
Unknown
Longitude
Unknown
Altitude
Unknown
Speed
Unknown
Apparent Right ascension
Unknown
Apparent Declination
Unknown
Sunlit
N/A
Visualization observer readout
Local Sidereal Time
16:06:43
Azimuth
Unknown
Elevation
Unknown
Doppler factor
Unknown
Orbital elements
Apogee altitude
1,398.154 km
Perigee altitude
1,304.323 km
Semi-major axis
7,729.376 km
Eccentricity
0.00607
Inclination
101.8585°
RAAN
357.7122°
Arg. of periapsis
354.2731°
True anomaly
66.93319°
Mean anomaly
66.2944°
Eccentric anomaly
66.6136°
Mean motion
3.19394 °/min
Orbital period
112.71 mins
BSTAR
0.010053
Loading maneuver chart data...
Computing Atmospheric mass density...
Loading historical data...
Loading historical data...
Loading historical data...
Loading historical data...
Loading historical data...
Loading historical data...
Loading historical data...

Documentation

Showing up to 5 results
|